Hourly Data Report for May 15, 2012

All times are specified in Local Standard Time (LST). Add 1 hour to adjust for Daylight Saving Time where and when it is observed.

PENTICTON A
BRITISH COLUMBIA

49°27'45.000" N
119°36'08.000" W
344.40 m
1126146
71889
YYF

Download Data

Hourly Data (May 2012)
Hourly Data Report for May 15, 2012
Temp Definition
°C
Dew Point Temp Definition
°C
Rel Hum Definition
%
Wind Dir Definition
10's deg

Wind Spd Definition
km/h
Visibility Definition
km
Stn Press Definition
kPa
Hmdx Definition


Wind Chill Definition


Weather Definition


TIME
00:00 Legend Double Dagger 11.6 5.1 64   0 10.0 97.44     LegendNANA
01:00 Legend Double Dagger 10.6 3.7 62 1 4 10.0 97.43     Clear
02:00 Legend Double Dagger 9.8 3.8 66 19 4 10.0 97.45     LegendNANA
03:00 Legend Double Dagger 8.7 2.5 65 0 8 10.0 97.47     LegendNANA
04:00 Legend Double Dagger 7.7 2.8 71   0 10.0 97.49     Mainly Clear
05:00 Legend Double Dagger 7.4 2.9 73   0 10.0 97.50     LegendNANA
06:00 Legend Double Dagger 12.7 5.4 61 2 10 10.0 97.53     LegendNANA
07:00 Legend Double Dagger 15.7 4.8 48 3 9 10.0 97.54     Mainly Clear
08:00 Legend Double Dagger 17.7 4.7 42 0 10 10.0 97.50     LegendNANA
09:00 Legend Double Dagger 19.4 4.9 38 35 9 10.0 97.44     LegendNANA
10:00 Legend Double Dagger 21.4 4.6 33 34 7 10.0 97.35     Mostly Cloudy
11:00 Legend Double Dagger 22.0 6.0 35 35 12 10.0 97.29     LegendNANA
12:00 Legend Double Dagger 24.3 7.7 34 35 11 10.0 97.19 25   LegendNANA
13:00 Legend Double Dagger 26.5 6.2 27 35 13 10.0 97.09 26   Mostly Cloudy
14:00 Legend Double Dagger 23.7 8.0 36 34 21 10.0 97.07     LegendNANA
15:00 Legend Double Dagger 28.3 4.2 21 1 13 10.0 97.04 27   LegendNANA
16:00 Legend Double Dagger 28.7 3.1 19 3 5 10.0 97.03 27   Mostly Cloudy
17:00 Legend Double Dagger 26.0 2.2 21 2 22 10.0 97.00     LegendNANA
18:00 Legend Double Dagger 25.0 2.0 22 0 19 10.0 96.99     LegendNANA
19:00 Legend Double Dagger 21.5 3.8 31 1 17 10.0 97.01     Mostly Cloudy
20:00 Legend Double Dagger 19.0 2.9 34 1 10 10.0 97.06     LegendNANA
21:00 Legend Double Dagger 20.3 2.3 30 2 13 10.0 97.13     LegendNANA
22:00 Legend Double Dagger 17.6 2.5 36 32 9 10.0 97.15     Mainly Clear
23:00 Legend Double Dagger 14.2 3.7 49 34 9 10.0 97.15     LegendNANA

Notes on Data Quality.

Legend

  • E = Estimated
  • M = Missing
  • NA = Not Available
  • ‡ = Partner data that is not subject to review by the National Climate Archives
Date modified: